Location: ????????
(55.6333°N, 37.7000°E)
Time: 01:18:39
(UTC+00:00)

Meteor 1-27 Rocket - Pass Details

Date: 19 May 2025
Orbit: 829 x 908 km, 81.3° (Epoch: 13 June)

Event Time Altitude Azimuth Distance (km) Brightness Sun altitude
Exits shadow 20:48:29 16° 199° (SSW) 2,059 5.2 -14.0°
Maximum altitude 20:53:00 79° 285° (WNW) 863 3.8 -14.1°
Drops below altitude 10° 20:58:34 10° 13° (NNE) 2,455 7.3 -14.2°
Sets 21:00:59 0° 15° (NNE) 3,389 8.2 -14.2°
